CAPE
650 530 121 21 0 0 0 0 0 481 354 196 20 7 28 35 42 20 29 16 12 86 77 65 24 1 0 13 18 101 105 70 28 37 83 45 27 52 79 122 176 206 257
715 607 350 61 5 0 0 0 55 439 363 30 0 3 40 47 21 16 0 8 9 18 15 10 0 0 0 2 29 74 143 86 73 106 50 6 0 0 0 0 57 104 192
470 553 515 126 4 0 21 0 85 438 284 328 0 2 0 3 7 28 19 6 19 10 30 36 47 29 10 34 105 224 218 149 137 123 39 0 0 0 1 1 3 6 35
649 477 355 238 161 92 151 40 200 20 117 749 0 0 0 0 2 10 70 117 182 171 160 111 98 121 130 146 167 140 151 146 141 96 116 0 0 0 0 1 1 1 2
11 196 603 287 160 254 319 5 0 1 531 771 0 0 22 52 97 152 140 169 169 158 119 149 135 154 200 252 212 208 143 127 159 122 38 60 28 0 0 1 1 1 0
0 0 852 498 110 820 452 308 477 953 1219 543 5 134 21 106 65 103 62 70 117 114 145 141 126 104 112 150 153 134 153 163 137 115 66 42 15 0 17 2 3 1 2
0 167 1159 832 369 1159 692 624 625 963 1156 542 0 81 66 46 5 92 45 73 126 104 121 150 179 165 154 149 125 107 98 80 65 32 32 59 12 0 0 0 1 0 2
0 42 1406 1183 933 1023 834 914 981 621 1301 922 108 193 86 85 106 74 0 85 74 67 79 90 128 188 138 97 88 49 23 1 0 0 0 10 100 10 0 0 0 1 1
18 1237 1848 1697 1449 1255 1173 1384 1200 1081 1032 1046 745 368 59 57 74 4 0 32 20 18 51 32 107 128 67 55 77 19 4 0 0 0 5 4 43 59 13 0 0 0 0
756 2280 2227 1963 1635 1389 1396 1469 1458 1475 1175 915 614 437 176 96 45 26 0 0 0 3 14 29 42 27 7 0 1 0 0 0 0 0 1 12 18 78 88 10 0 0 0
2470 2539 2456 2021 1670 1454 1457 1595 1606 1504 1416 905 572 380 175 74 35 49 58 0 0 0 0 0 15 3 0 0 0 0 0 0 0 0 0 0 3 51 107 26 0 0 0
2054 2499 2233 1758 1803 1572 1273 1601 1520 1535 1352 803 473 345 161 18 77 85 17 0 0 0 0 0 0 0 0 0 0 0 0 0 0 0 0 0 0 0 18 11 0 0 0
683 2255 2295 1920 1485 1419 1359 1548 1649 1608 1206 799 554 418 127 137 104 32 3 8 0 0 0 0 0 0 0 0 0 0 0 0 0 0 0 0 0 0 0 0 0 0 0
659 1824 1913 1817 1272 1260 1486 1685 1858 1559 1037 765 539 398 281 219 127 65 14 0 1 0 0 0 0 0 0 0 0 0 0 0 0 0 0 0 0 0 0 0 0 0 0
127 1162 1449 1617 1246 1286 1574 1828 1802 1372 864 714 579 397 247 240 102 65 24 16 7 16 0 0 0 0 0 0 0 0 0 0 0 0 0 0 0 0 0 0 1 0 0
0 108 1107 1669 1312 1454 1637 1776 1736 1161 727 618 574 395 314 214 195 87 21 34 12 3 10 23 0 0 0 0 0 0 0 0 0 0 0 0 0 0 0 0 1 0 1
1 72 900 1589 1379 1540 1799 2059 1657 1157 862 520 395 337 402 389 226 120 64 42 27 10 22 0 0 0 0 0 0 0 0 0 0 0 0 0 0 0 0 0 0 0 0
196 1213 1886 1671 1461 1809 1951 1714 1449 1315 1007 620 302 265 314 434 427 287 116 63 34 6 8 1 0 0 0 0 0 0 0 0 0 0 0 0 0 0 0 0 0 0 0
873 1523 1995 1736 1800 1673 1423 1272 1246 1248 1116 902 573 304 298 380 387 371 201 109 71 10 6 3 0 0 0 0 0 0 0 0 0 0 0 0 0 0 0 0 0 0 0
737 1382 2020 1722 1611 1559 1500 1371 1265 1160 1028 821 549 300 336 412 342 127 44 23 20 2 0 0 0 0 0 0 0 0 0 0 0 0 0 0 0 0 0 0 0 0 0
842 1021 2042 2007 1843 1576 1373 1378 1279 1128 835 647 455 347 226 202 140 6 0 0 0 0 1 8 0 0 0 0 0 0 0 0 0 0 0 0 0 0 0 0 0 0 0
1482 1598 1506 1065 1018 970 1184 1233 1100 517 383 261 151 72 4 0 0 0 16 13 0 0 0 0 0 0 0 0 0 0 0 0 0 0 0 0 0 0 0 0 0 0 0
796 661 192 919 812 728 939 945 495 278 75 19 10 2 0 0 2 35 67 54 0 0 0 0 1 0 0 11 0 0 0 0 0 0 0 0 0 0 0 0 0 0 0
499 62 123 240 496 615 590 489 370 254 148 104 51 46 36 15 0 0 0 10 43 53 18 10 1 0 0 4 3 0 0 0 0 0 0 0 0 0 0 0 0 0 0
695 137 5 12 30 86 370 334 290 321 247 97 50 8 0 0 0 0 0 0 0 0 0 4 11 49 50 23 0 0 0 0 0 0 0 0 0 0 0 0 0 0 0
247 211 267 288 238 146 30 25 60 50 7 0 0 0 0 0 0 0 0 0 0 0 0 0 0 0 0 0 0 0 0 0 0 0 0 0 0 0 0 0 0 0 0
CIN
-419 -421 -544 -628 0 0 0 0 0 -129 -169 -207 -327 -326 -262 -142 -52 -36 -60 -74 -88 -53 -58 -67 -78 -114 -7 -90 -79 -54 -55 -86 -105 -81 -67 -90 -113 -94 -99 -102 -87 -80 -63
-389 -393 -432 -572 -541 0 0 0 -164 -166 -146 -269 -34 -237 -270 -206 -134 -108 0 -83 -81 -103 -109 -126 0 0 0 -26 -70 -61 -51 -68 -87 -47 -60 -51 -21 0 0 0 -114 -103 -83
-320 -347 -365 -450 -338 0 -381 0 -202 -190 -168 -138 0 -373 0 -177 -210 -155 -123 -110 -88 -93 -88 -89 -58 -71 -56 -89 -50 -27 -34 -28 -63 -58 -65 0 0 0 -1 -1 0 -45 -81
-269 -247 -333 -376 -398 -477 -467 -469 -296 -190 -176 -60 0 -32 -34 -19 -138 -141 -89 -48 -52 -43 -43 -51 -64 -67 -67 -57 -55 -56 -53 -32 -41 -69 -69 0 0 0 0 -3 0 0 0
-308 -173 -300 -326 -360 -334 -340 -36 0 -11 -101 -57 0 -8 -141 -140 -74 -57 -55 -51 -58 -55 -34 -40 -37 -41 -26 -23 -24 -30 -41 -35 -28 -33 -68 -56 -45 0 0 -13 -1 -13 0
0 0 -321 -297 -363 -223 -302 -336 -232 -86 -37 -79 -36 -86 -86 -87 -124 -62 -68 -67 -59 -71 -55 -59 -51 -66 -56 -27 -26 -32 -33 -29 -36 -33 -57 -69 -59 0 -41 -6 -3 -8 0
0 -505 -249 -245 -319 -209 -257 -249 -217 -95 -44 -72 0 -74 -87 -111 -72 -82 -68 -60 -60 -70 -69 -52 -65 -62 -63 -40 -48 -35 -30 -47 -64 -62 -74 -70 -47 0 0 0 0 -9 -5
0 -196 -227 -228 -236 -215 -245 -186 -165 -151 -60 -55 -116 -58 -84 -133 -88 -105 0 -62 -70 -81 -80 -80 -82 -51 -79 -146 -83 -72 -54 -10 0 0 0 -38 -43 -71 0 0 0 0 -1
-492 -227 -183 -192 -225 -217 -180 -127 -114 -102 -67 -49 -45 -48 -104 -96 -108 -51 0 -95 -106 -116 -105 -93 -47 -73 -95 -113 -120 -131 -144 0 0 0 -108 -46 -84 -63 -150 0 0 0 0
-320 -168 -173 -193 -215 -225 -182 -150 -88 -54 -51 -45 -62 -58 -86 -110 -163 -161 0 0 0 -54 -129 -108 -49 -99 -199 -94 -133 0 0 0 0 0 -86 -152 -144 -68 -67 -218 0 0 0
-137 -145 -153 -203 -195 -209 -186 -130 -93 -51 -44 -60 -79 -80 -93 -108 -164 -171 -174 0 0 0 0 0 -96 -161 0 0 0 0 0 0 0 0 0 0 -176 -86 -63 -171 0 0 0
-168 -125 -140 -190 -192 -205 -210 -157 -112 -56 -53 -81 -119 -116 -126 -112 -106 -125 -188 0 0 0 0 0 0 0 0 0 0 0 0 0 0 0 0 0 0 -14 -183 -169 0 0 0
-325 -137 -148 -172 -201 -217 -192 -159 -105 -54 -62 -107 -131 -121 -156 -131 -135 -144 -43 -168 0 0 0 0 0 0 0 0 0 0 0 0 0 0 0 0 0 0 0 0 0 0 0
-369 -221 -170 -158 -201 -224 -177 -131 -78 -71 -105 -125 -144 -148 -143 -118 -124 -154 -160 -14 -35 0 0 0 0 0 0 0 0 0 0 0 0 0 0 0 0 0 0 0 0 0 0
-551 -307 -231 -204 -230 -245 -188 -121 -82 -109 -140 -145 -136 -138 -136 -110 -118 -110 -146 -127 -125 -137 0 0 0 0 0 0 0 0 0 0 0 0 0 0 0 0 0 0 0 0 0
0 -514 -282 -208 -221 -206 -172 -127 -93 -136 -172 -162 -140 -158 -129 -88 -72 -86 -124 -122 -100 -111 -121 -136 0 0 0 0 0 0 0 0 0 0 0 0 0 0 0 0 0 0 0
-154 -466 -303 -189 -230 -206 -160 -95 -127 -158 -166 -185 -189 -167 -126 -86 -94 -91 -84 -75 -73 -86 -93 -8 0 0 0 0 0 0 0 0 0 0 0 0 0 0 0 0 0 0 0
-386 -246 -179 -220 -266 -203 -167 -194 -166 -145 -138 -174 -199 -186 -122 -76 -77 -100 -95 -83 -67 -60 -63 -50 0 0 0 0 0 0 0 0 0 0 0 0 0 0 0 0 0 0 0
-262 -197 -196 -219 -212 -219 -252 -229 -233 -197 -141 -141 -150 -146 -128 -103 -117 -98 -114 -105 -52 -29 -42 -22 0 0 0 0 0 0 0 0 0 0 0 0 0 0 0 0 0 0 0
-307 -192 -151 -168 -175 -201 -218 -235 -204 -174 -129 -139 -151 -172 -146 -124 -149 -232 -264 -242 -146 -1 -16 0 0 0 0 0 0 0 0 0 0 0 0 0 0 0 0 0 0 0 0
-366 -278 -117 -99 -132 -187 -181 -132 -118 -124 -161 -193 -201 -195 -186 -178 -228 -245 0 0 0 0 -6 -29 0 0 0 0 0 0 0 0 0 0 0 0 0 0 0 0 0 0 0
-259 -212 -123 -161 -217 -215 -156 -106 -90 -213 -234 -305 -334 -332 -129 0 0 0 -185 -190 0 0 0 0 -1 -11 0 0 0 0 0 0 0 0 0 0 0 0 0 0 0 0 0
-240 -245 -86 -122 -146 -172 -213 -103 -158 -244 -325 -441 -453 -490 0 0 -118 -235 -131 -102 0 0 0 0 0 0 -14 -97 0 0 0 0 0 0 0 0 0 0 0 0 0 0 0
-262 -386 -67 -54 -115 -140 -140 -137 -159 -184 -227 -276 -324 -372 -313 -254 0 0 0 -188 -147 -98 -107 -121 -8 0 -1 -95 -48 -4 0 0 0 0 0 0 0 0 0 0 0 0 0
-170 -299 -147 -74 -67 -152 -73 -92 -113 -143 -142 -244 -357 -227 -30 0 0 0 0 0 0 0 0 -80 -66 -41 -27 -58 0 0 0 0 0 0 0 0 0 0 0 0 0 0 0
-179 -210 -179 -114 -74 -102 -64 -193 -224 -247 -121 0 0 0 0 0 0 0 0 0 0 0 0 0 0 0 0 0 0 0 0 0 0 0 0 0 0 0 0 0 0 0 0
Wind_Speed
8 10 10 12 15 15 14 13 13 14 15 16 16 16 17 15 12 6 6 6 14 10 17 19 25 19 4 8 31 24 3 30 12 12 15 17 16 16 18 19 17 16 14
6 9 9 9 11 12 12 13 12 12 12 14 16 18 19 19 16 11 11 15 19 16 22 25 25 22 12 18 10 10 15 20 11 14 15 16 16 17 20 20 19 18 16
14 7 8 7 10 10 10 11 11 11 11 13 17 19 20 20 18 14 13 13 17 20 22 24 22 17 2 15 10 8 9 17 15 12 15 16 16 15 18 19 18 16 16
14 9 3 7 6 8 10 10 10 10 10 11 13 16 18 17 14 16 14 13 14 17 20 21 20 15 13 11 10 12 12 14 17 13 7 15 14 12 13 15 16 16 16
22 17 16 13 8 6 9 10 10 9 10 10 11 15 17 15 14 14 14 14 14 16 16 18 18 18 19 19 17 19 19 18 18 14 15 12 11 13 13 10 11 15 18
12 11 15 11 7 6 7 9 10 9 8 9 9 10 14 12 11 10 11 11 13 15 17 17 17 17 19 20 21 24 21 16 20 20 13 8 12 6 7 9 9 11 14
13 12 11 9 9 7 7 8 9 8 9 9 8 9 11 10 11 11 11 11 10 14 16 16 16 16 15 16 16 16 15 16 18 20 19 5 7 11 6 7 8 10 10
12 10 10 10 11 9 9 8 9 9 8 8 8 7 9 9 13 11 11 13 12 11 16 15 15 14 14 14 14 16 16 17 19 21 21 22 15 9 7 7 9 11 12
11 12 12 11 15 11 10 10 10 9 9 10 11 11 12 14 15 14 12 13 13 12 12 15 15 13 13 13 13 16 16 17 18 19 20 20 21 7 6 8 12 12 12
10 11 11 14 15 11 10 10 9 9 10 10 11 12 13 15 16 14 14 13 13 13 13 12 13 13 14 15 16 17 15 16 17 17 17 18 19 16 4 8 11 9 9
10 11 13 13 13 11 10 10 9 9 9 10 11 12 13 13 14 14 13 13 14 14 14 13 12 12 14 16 15 15 16 16 16 16 15 16 17 16 8 7 8 8 7
8 10 11 10 10 11 10 9 9 8 9 11 12 13 13 13 12 12 12 13 13 13 13 14 11 12 14 15 14 14 14 15 15 15 15 16 16 16 11 5 6 5 6
6 8 7 8 9 12 10 9 9 9 10 11 12 12 12 12 12 11 11 11 12 13 13 13 12 13 14 13 13 13 14 14 15 15 15 16 15 13 9 7 5 5 6
4 3 6 7 9 10 8 8 9 9 10 11 11 11 12 11 10 10 10 10 11 12 13 14 14 14 14 15 15 14 13 13 13 15 15 15 14 13 10 8 7 6 6
6 3 6 7 5 7 7 7 7 8 10 10 10 11 11 10 9 9 8 9 10 12 12 13 14 13 14 15 14 13 13 12 12 13 13 14 13 12 12 10 8 7 6
4 2 3 7 7 5 5 6 7 8 9 10 10 11 10 9 8 8 9 10 8 9 12 10 12 14 13 12 12 11 12 12 12 12 12 12 12 12 11 10 10 9 6
5 5 3 7 7 6 5 5 7 8 9 10 10 10 9 8 9 8 5 5 4 6 2 4 13 12 15 10 10 11 12 12 12 12 12 11 11 11 11 10 10 10 10
5 4 3 2 5 4 5 5 7 7 8 9 9 9 8 7 8 9 7 6 5 2 2 2 2 16 13 12 8 9 12 13 13 13 12 12 11 11 10 10 11 11 11
9 8 7 1 2 2 4 6 6 6 6 7 8 8 7 7 10 11 12 11 10 10 6 5 2 11 16 15 9 9 12 13 13 13 13 12 11 11 10 10 11 11 12
12 13 10 6 3 3 3 5 5 6 6 7 9 9 9 10 11 13 14 14 14 15 10 6 5 17 20 18 13 9 9 12 12 13 14 14 13 11 10 11 10 10 11
21 14 9 8 5 4 5 4 4 5 7 9 10 10 11 11 12 13 14 14 14 15 14 14 6 10 18 17 16 12 11 13 12 13 14 13 12 11 10 10 9 11 9
20 17 13 12 8 6 6 6 4 7 8 9 11 11 11 12 14 15 16 14 12 14 13 15 14 4 18 12 13 12 10 11 14 15 16 15 12 10 10 10 11 9 8
18 18 24 12 10 11 8 11 13 8 9 10 11 12 13 14 16 16 16 15 14 14 14 14 12 10 7 5 6 5 6 5 4 15 19 14 12 12 14 11 10 8 9
21 21 36 14 14 15 12 10 10 9 9 9 10 12 14 15 16 16 15 18 20 19 15 11 8 6 5 5 6 5 5 5 5 8 14 17 16 17 18 19 16 13 12
12 11 17 20 23 19 13 14 13 10 10 11 12 14 14 14 15 14 15 17 18 21 25 24 21 12 4 4 6 4 5 9 8 16 15 15 13 14 14 13 14 13 12
18 15 13 13 15 10 6 5 6 10 10 12 14 15 15 15 15 16 18 17 17 19 22 21 19 23 17 23 18 7 8 10 8 11 9 9 10 10 9 11 12 11 12
Wind_Direction
89 100 99 69 63 72 88 106 103 94 82 69 65 57 56 70 64 49 316 310 278 289 284 284 272 285 267 180 239 281 306 253 318 318 300 305 312 317 312 311 315 316 320
103 116 123 85 73 77 91 105 111 102 91 75 63 52 49 57 88 50 317 294 275 291 275 268 277 221 186 282 295 307 308 291 307 307 308 309 317 320 317 316 316 319 320
323 116 120 104 76 81 91 109 116 108 101 75 54 42 34 46 63 65 349 314 281 277 276 267 271 287 144 255 300 305 310 297 300 313 312 317 317 324 324 328 329 330 326
20 349 69 149 115 88 84 103 108 108 102 86 67 47 22 46 83 39 355 338 300 290 278 271 278 293 301 309 314 306 308 309 299 321 332 318 330 336 334 339 346 344 338
16 314 191 180 165 111 76 81 97 96 103 99 82 32 20 25 25 29 2 340 328 292 294 294 292 291 287 292 297 293 297 296 301 312 314 323 327 329 332 350 353 342 332
35 118 161 164 156 101 80 79 86 94 104 99 88 75 41 39 30 38 29 23 351 323 311 304 300 299 291 289 289 277 290 306 294 295 316 338 331 359 359 356 17 2 340
47 108 138 153 158 107 100 84 82 115 106 101 101 77 69 75 98 96 109 100 54 342 318 310 309 305 308 297 300 305 313 308 295 293 301 3 347 344 22 28 48 55 26
47 104 120 143 156 132 101 98 94 120 114 109 104 102 109 94 127 100 98 126 111 58 324 319 320 320 317 313 311 303 309 305 297 291 294 283 169 335 7 47 77 64 63
72 110 123 133 160 125 111 100 94 118 105 97 87 90 113 113 123 108 68 113 113 77 18 319 319 326 341 331 321 300 307 307 303 299 291 281 268 334 69 84 110 98 85
87 108 115 134 146 123 112 96 99 115 88 93 88 88 106 120 114 84 87 92 91 43 2 30 352 339 330 328 300 294 317 315 313 307 301 286 276 286 360 103 113 98 63
102 104 129 125 133 124 115 108 97 100 92 83 86 92 101 105 104 93 85 68 61 39 16 9 359 353 328 313 326 318 307 312 311 309 306 293 284 279 321 91 102 92 43
114 119 130 119 119 130 121 110 99 100 84 72 78 86 96 101 95 84 73 60 52 38 33 359 15 349 331 329 323 325 323 326 320 313 307 293 286 285 313 46 94 80 26
118 139 128 122 124 139 117 88 79 84 74 71 75 80 91 89 93 86 62 48 36 27 16 4 1 349 339 339 335 331 326 325 319 305 300 294 294 304 332 5 45 48 18
15 96 143 134 130 130 102 66 67 73 61 71 86 91 95 90 86 64 59 38 30 19 8 353 343 335 332 328 325 325 325 325 322 308 308 305 305 315 334 349 6 12 1
341 128 144 152 126 116 98 75 71 58 59 71 92 98 92 87 79 60 55 33 10 4 356 349 340 336 327 322 324 325 323 328 328 319 316 318 322 326 333 345 349 360 2
303 211 157 153 151 123 92 81 79 55 70 67 89 86 87 87 70 47 25 18 12 15 4 342 333 324 327 330 327 328 327 327 332 327 327 329 332 333 338 349 353 356 15
190 189 215 166 158 144 103 80 81 57 77 70 75 82 82 76 49 44 33 27 31 17 43 14 317 318 313 328 327 322 318 319 323 326 327 331 334 344 348 355 357 354 350
217 209 215 188 152 112 95 39 58 63 64 65 65 77 85 72 44 36 48 43 32 357 330 201 313 298 309 312 319 320 310 309 312 316 319 324 331 338 351 355 351 347 343
281 294 298 257 138 94 60 52 58 61 66 62 53 57 78 62 47 42 42 42 30 14 353 337 257 298 295 300 304 309 305 303 306 309 312 316 324 330 336 338 340 338 337
278 288 290 288 299 337 47 58 43 39 40 46 30 34 42 37 40 32 36 36 35 29 38 17 311 286 280 288 295 299 310 307 306 305 306 305 310 319 326 330 337 336 337
283 279 261 253 264 307 333 20 51 36 16 22 22 27 29 28 21 20 21 25 36 38 37 34 13 297 278 287 290 288 295 298 306 306 302 303 307 315 324 329 331 328 339
289 278 260 259 273 297 325 328 356 1 18 15 19 19 26 19 6 359 359 12 27 32 35 26 40 29 288 297 296 289 288 292 294 297 298 299 304 310 315 320 322 331 336
301 298 273 234 283 296 316 303 306 341 355 3 8 8 16 8 2 358 354 356 2 5 14 19 33 48 35 133 303 276 270 273 269 295 290 300 301 301 303 307 314 323 324
300 290 296 291 299 302 315 308 309 325 341 351 4 8 6 358 355 353 352 343 338 337 340 350 2 26 61 24 324 271 238 229 233 287 292 291 292 292 293 293 299 303 303
286 274 270 282 291 305 297 295 307 317 329 339 350 356 1 358 354 355 355 351 348 335 322 321 327 326 290 290 308 244 243 233 256 288 284 286 292 290 294 297 298 301 302
286 273 275 282 286 300 306 338 342 329 338 343 348 356 355 355 352 346 344 346 345 340 333 332 329 320 322 314 314 257 247 238 262 282 273 262 265 265 268 280 287 289 292